Weather History for Lawton, OK

Change the Weather History Date:

Friday, February 22, 2013

  Actual Average Record
Temperature  
Mean Temperature 34 °F -  
Max Temperature 44 °F 57 °F 83 °F (1982)
Min Temperature 24 °F 33 °F 16 °F (1978)
Degree Days  
Heating Degree Days 31    
Moisture  
Dew Point 19 °F    
Average Humidity 60    
Maximum Humidity 78    
Minimum Humidity 42    
Precipitation  
Precipitation 0.00 in - - ()
Sea Level Pressure  
Sea Level Pressure 30.12 in    
Wind  
Wind Speed 9 mph (North)    
Max Wind Speed 16 mph    
Max Gust Speed 23 mph    
Visibility 10 miles    
Events      
Averages and records for this station are not official NWS values.
T = Trace of Precipitation, MM = Missing Value Source: NWS Daily Summary

Daily Weather History Graph

Daily Weather History Graph

Search for Another Location

Airport:

Trip Planner

Search our weather history database for the weather conditions in past years. The results will help you decide how hot, cold, wet, or windy it might be!

Date:

Astronomy

Feb. 22, 2013 Rise Set
Actual Time 7:10 AM CST 6:23 PM CST
Civil Twilight 6:45 AM CST 6:49 PM CST
Nautical Twilight 6:16 AM CST 7:18 PM CST
Astronomical Twilight 5:47 AM CST 7:47 PM CST
Moon 3:41 PM CST (2/22) 4:51 AM CST (2/22)
Length of Visible Light 12h 03m
Length of Day
11h 12m
Waxing Gibbous, 90% of the Moon is Illuminated
Feb 22
Waxing Gibbous
Feb 25
Full
Mar 4
Last Quarter
Mar 11
New
Mar 19
First Quarter

Hourly Weather History & Observations

Time (CST) Temp. Windchill Dew Point Humidity Pressure Visibility Wind Dir Wind Speed Gust Speed Precip Events Conditions
12:53 AM 27.0 °F 16.1 °F 17.1 °F 66% 30.04 in 10.0 mi NNW 12.7 mph 23.0 mph N/A   Clear
1:53 AM 27.0 °F 15.2 °F 16.0 °F 63% 30.05 in 10.0 mi North 15.0 mph - N/A   Clear
2:53 AM 26.1 °F 13.6 °F 16.0 °F 66% 30.04 in 10.0 mi North 16.1 mph - N/A   Clear
3:53 AM 25.0 °F 17.1 °F 16.0 °F 69% 30.04 in 10.0 mi North 6.9 mph - N/A   Clear
4:53 AM 25.0 °F 16.3 °F 16.0 °F 69% 30.05 in 10.0 mi North 8.1 mph - N/A   Clear
5:53 AM 25.0 °F 20.7 °F 15.1 °F 66% 30.10 in 10.0 mi WNW 3.5 mph - N/A   Clear
6:53 AM 24.1 °F 18.2 °F 15.1 °F 69% 30.13 in 10.0 mi North 4.6 mph - N/A   Clear
7:53 AM 25.0 °F 20.7 °F 16.0 °F 69% 30.15 in 10.0 mi NNW 3.5 mph - N/A   Clear
8:53 AM 28.0 °F 20.8 °F 15.1 °F 58% 30.20 in 10.0 mi NNE 6.9 mph - N/A   Clear
9:53 AM 30.0 °F 24.1 °F 16.0 °F 56% 30.21 in 10.0 mi NNE 5.8 mph - N/A   Clear
10:53 AM 33.1 °F 24.4 °F 18.0 °F 54% 30.18 in 10.0 mi North 11.5 mph - N/A   Clear
11:53 AM 36.0 °F 30.3 °F 19.0 °F 50% 30.17 in 10.0 mi NNE 6.9 mph - N/A   Clear
12:53 PM 39.0 °F 34.8 °F 19.9 °F 46% 30.15 in 10.0 mi Variable 5.8 mph - N/A   Clear
1:53 PM 41.0 °F 38.0 °F 21.9 °F 47% 30.11 in 10.0 mi North 4.6 mph - N/A   Clear
2:53 PM 43.0 °F - 21.9 °F 43% 30.08 in 10.0 mi Calm Calm - N/A   Clear
3:53 PM 44.1 °F 40.1 °F 21.9 °F 42% 30.08 in 10.0 mi NNE 6.9 mph - N/A   Clear
4:53 PM 43.0 °F 36.8 °F 24.1 °F 47% 30.07 in 10.0 mi NNE 11.5 mph - N/A   Clear
5:53 PM 39.9 °F 32.9 °F 24.1 °F 53% 30.08 in 10.0 mi North 11.5 mph - N/A   Clear
6:53 PM 37.0 °F 31.0 °F 24.1 °F 59% 30.11 in 10.0 mi NNW 8.1 mph - N/A   Clear
7:53 PM 34.0 °F 28.0 °F 24.1 °F 67% 30.14 in 10.0 mi ENE 6.9 mph - N/A   Clear
8:53 PM 32.0 °F 27.5 °F 23.0 °F 69% 30.17 in 10.0 mi NNE 4.6 mph - N/A   Clear
9:53 PM 30.9 °F 25.2 °F 23.0 °F 72% 30.17 in 10.0 mi NNE 5.8 mph - N/A   Clear
10:53 PM 30.0 °F 24.1 °F 21.9 °F 72% 30.17 in 10.0 mi NNE 5.8 mph - N/A   Clear
11:53 PM 28.0 °F 20.8 °F 21.9 °F 78% 30.14 in 10.0 mi NNE 6.9 mph - N/A   Clear